Home   Weather   Mechelen   Past weeks

Flag for Belgium Past Weather in Mechelen, Belgium — Yesterday and Last 2 Weeks

43 °F


Feels Like: 40 °F
Forecast: 48 / 56 °F
Wind: 5 mph from Northeast

Location: Brussels National Airport

Current Time: Oct 24, 2016 at 7:25:14 AM

Latest Report: Oct 24, 2016 at 6:50 AM

Visibility: 2 mi

Pressure: 29.83 "Hg

Humidity: 100%

Dew Point: 43 °F

Location of MechelenLocation

Past Weather in Mechelen — Graph


Mechelen Temperature Yesterday

Maximum temperature yesterday: 43 °F (at 12:50 PM)
Minimum temperature yesterday: 32 °F (at 4:50 AM)
Average temperature yesterday: 39 °F

High & Low Weather Summary for the Past Weeks

High68 °F (Oct 16, 2:50 PM)100% (Oct 9, 7:20 AM)30.30 "Hg (Oct 9, 7:20 AM)
Low32 °F (Oct 23, 4:50 AM)47% (Oct 9, 4:20 PM)29.62 "Hg (Oct 15, 1:50 AM)
Average49 °F85%30.02 "Hg
* Reported Oct 9 5:20 AM — Oct 24 5:50 AM, Mechelen, Weather by CustomWeather, © 2016

Note: Actual official high and low records may vary slightly from our data, if they occured in-between our weather recording intervals... More about our weather records


Mechelen Weather History for the Previous 24 Hours

Scroll right to see more
Time TempWeatherWind HumidityBarometerVisibility
5:50 AM
Mon, Oct 24
43 °FLight rain. Fog.3 mph93%29.86 "Hg1 mi
5:20 AM43 °FFog.3 mph93%29.86 "Hg1 mi
4:50 AM43 °FFog.3 mph93%29.86 "Hg1 mi
4:20 AM43 °FFog.3 mph93%29.86 "Hg1 mi
3:50 AM43 °FLight rain. Fog.3 mph93%29.86 "Hg1 mi
3:20 AM43 °FLight rain. Fog.2 mph93%29.86 "Hg1 mi
2:50 AM43 °FLight rain. Fog.3 mph93%29.86 "Hg2 mi
2:20 AM43 °FFog.1 mph93%29.86 "Hg2 mi
1:50 AM43 °FFog.5 mph93%29.86 "Hg2 mi
1:20 AM43 °FFog.3 mph93%29.86 "Hg2 mi
12:50 AM43 °FFog.3 mph93%29.86 "Hg2 mi
12:20 AM43 °FFog.3 mph93%29.86 "Hg2 mi
11:50 PM
Sun, Oct 23
43 °FFog.5 mph93%29.86 "Hg2 mi
11:20 PM43 °FFog.5 mph93%29.86 "Hg2 mi
10:50 PM43 °FFog.5 mph93%29.89 "Hg2 mi
10:20 PM43 °FFog.5 mph93%29.89 "Hg2 mi
9:50 PM43 °FFog.5 mph93%29.86 "Hg1 mi
9:20 PM43 °FFog.3 mph93%29.86 "Hg2 mi
8:50 PM43 °FFog.3 mph93%29.89 "Hg2 mi
8:20 PM41 °FFog.6 mph100%29.89 "Hg1 mi
7:50 PM41 °FFog.6 mph100%29.86 "Hg1 mi
7:20 PM41 °FFog.5 mph100%29.86 "Hg1 mi
6:50 PM41 °FFog.7 mph100%29.86 "Hg1 mi
6:20 PM41 °FFog.5 mph100%29.86 "Hg0 mi
5:50 PM41 °FFog.6 mph100%29.86 "Hg1 mi
5:20 PM41 °FFog.6 mph93%29.89 "Hg1 mi
4:50 PM41 °FBroken clouds.7 mph93%29.89 "Hg1 mi
4:20 PM41 °FFog.6 mph100%29.89 "Hg1 mi
3:50 PM41 °FFog.6 mph100%29.86 "Hg1 mi
3:20 PM43 °FFog.6 mph93%29.86 "Hg1 mi
2:50 PM41 °FFog.3 mph100%29.89 "Hg2 mi
2:20 PM43 °FFog.5 mph93%29.89 "Hg1 mi
1:50 PM43 °FFog.5 mph93%29.89 "Hg1 mi
1:20 PM41 °FFog.3 mph100%29.89 "Hg1 mi
12:50 PM43 °FFog.2 mph93%29.89 "Hg1 mi
12:20 PM41 °FFog.2 mph93%29.92 "Hg1 mi
11:50 AM39 °FFog.3 mph100%29.92 "Hg1 mi
11:20 AM39 °FFog.5 mph93%29.92 "Hg1 mi
10:50 AM37 °FFog.3 mph100%29.92 "Hg1 mi
10:20 AM37 °FFog.5 mph100%29.92 "Hg0 mi
9:50 AM36 °FFog.2 mph100%29.92 "Hg0 mi
9:20 AM36 °FFog.2 mph100%29.92 "Hg0 mi
8:50 AM36 °FFog.1 mph100%29.92 "Hg0 mi
8:20 AM36 °FFog.5 mph100%29.92 "Hg0 mi
7:50 AM36 °FFog.3 mph100%29.92 "Hg0 mi
7:20 AM34 °FFog.2 mph100%29.89 "Hg0 mi
Weather by CustomWeather, © 2016

See weather overviewHow to use our weather pages